Weather History for Covington, KY

Change the Weather History Date:

Thursday, May 16, 2013

  Actual Average Record
Temperature  
Mean Temperature 67 °F 63 °F  
Max Temperature 76 °F 74 °F 90 °F (1962)
Min Temperature 58 °F 53 °F 32 °F (1997)
Degree Days  
Heating Degree Days 0 4  
Month to date heating degree days 69 84  
Since 1 July heating degree days 4957 4918  
Cooling Degree Days 2 2  
Month to date cooling degree days 27 24  
Year to date cooling degree days 50 42  
Growing Degree Days 18 (Base 50)    
Moisture  
Dew Point 61 °F    
Average Humidity 75    
Maximum Humidity 100    
Minimum Humidity 49    
Precipitation  
Precipitation 0.05 in 0.17 in 2.83 in (1990)
Month to date precipitation 4.18 2.56  
Year to date precipitation 16.84 16.22  
Snow  
Snow 0.00 in 0.00 in 0.00 in ()
Month to date snowfall 0.0 0.0  
Since 1 July snowfall 25.2 22.1  
Snow Depth 0.00 in    
Sea Level Pressure  
Sea Level Pressure 29.93 in    
Wind  
Wind Speed 6 mph (SW)    
Max Wind Speed 13 mph    
Max Gust Speed 18 mph    
Visibility 8 miles    
Events Rain , Thunderstorm    
T = Trace of Precipitation, MM = Missing Value Source: NWS Daily Summary

Daily Weather History Graph

Daily Weather History Graph

Search for Another Location

Airport:

Trip Planner

Search our weather history database for the weather conditions in past years. The results will help you decide how hot, cold, wet, or windy it might be!

Date:

Astronomy

May. 16, 2013 Rise Set
Actual Time 6:24 AM EDT 8:45 PM EDT
Civil Twilight 5:54 AM EDT 9:16 PM EDT
Nautical Twilight 5:17 AM EDT 9:53 PM EDT
Astronomical Twilight 4:36 AM EDT 10:34 PM EDT
Moon 11:56 AM EDT (5/16) 1:07 AM EDT (5/16)
Length of Visible Light 15h 21m
Length of Day
14h 21m
Waxing Crescent, 35% of the Moon is Illuminated
May 16
Waxing Crescent
May 18
First Quarter
May 25
Full
May 31
Last Quarter
Jun 8
New

Hourly Weather History & Observations

Time (EDT) Temp. Dew Point Humidity Pressure Visibility Wind Dir Wind Speed Gust Speed Precip Events Conditions
12:52 AM 73.0 °F 54.0 °F 51% 29.87 in 10.0 mi SW 10.4 mph 17.3 mph N/A   Overcast
1:52 AM 70.0 °F 54.0 °F 57% 29.86 in 10.0 mi SW 6.9 mph - N/A   Overcast
2:52 AM 70.0 °F 54.0 °F 57% 29.86 in 10.0 mi SW 8.1 mph - N/A   Mostly Cloudy
3:52 AM 66.9 °F 55.0 °F 66% 29.85 in 10.0 mi SSW 8.1 mph - N/A   Mostly Cloudy
4:52 AM 66.9 °F 54.0 °F 63% 29.86 in 10.0 mi SW 8.1 mph - N/A   Mostly Cloudy
5:52 AM 66.9 °F 54.0 °F 63% 29.86 in 10.0 mi SW 9.2 mph - N/A   Mostly Cloudy
6:52 AM 66.0 °F 53.1 °F 63% 29.88 in 10.0 mi SW 8.1 mph - N/A   Mostly Cloudy
7:52 AM 66.0 °F 54.0 °F 65% 29.90 in 10.0 mi SW 5.8 mph - N/A   Mostly Cloudy
8:52 AM 66.9 °F 55.0 °F 66% 29.91 in 10.0 mi SW 9.2 mph - N/A   Mostly Cloudy
9:52 AM 70.0 °F 57.0 °F 63% 29.91 in 10.0 mi WSW 9.2 mph 18.4 mph 0.01 in   Scattered Clouds
10:52 AM 73.9 °F 61.0 °F 64% 29.91 in 10.0 mi West 9.2 mph - N/A   Mostly Cloudy
11:52 AM 75.0 °F 62.1 °F 64% 29.91 in 10.0 mi West 4.6 mph - N/A   Mostly Cloudy
12:07 PM 75.2 °F 62.6 °F 65% 29.95 in 9.0 mi NNW 9.2 mph - N/A Thunderstorm Thunderstorm
12:33 PM 71.6 °F 62.6 °F 73% 29.96 in 10.0 mi North 6.9 mph - N/A   Overcast
12:52 PM 70.0 °F 64.9 °F 84% 29.93 in 7.0 mi North 5.8 mph - 0.01 in Rain Light Rain
1:52 PM 71.1 °F 66.0 °F 84% 29.93 in 7.0 mi West 3.5 mph - 0.03 in   Overcast
1:56 PM 71.6 °F 66.2 °F 83% 29.95 in 7.0 mi WSW 3.5 mph - N/A Thunderstorm Thunderstorm
2:33 PM 69.8 °F 66.2 °F 88% 29.99 in 6.0 mi SW 8.1 mph - 0.00 in Rain Light Rain
2:43 PM 68.0 °F 66.2 °F 94% 30.00 in 5.0 mi WSW 10.4 mph - 0.00 in Rain Light Rain
2:52 PM 66.9 °F 66.0 °F 97% 29.98 in 5.0 mi SW 10.4 mph - 0.00 in Rain Light Rain
3:52 PM 66.9 °F 64.9 °F 93% 29.95 in 6.0 mi South 5.8 mph - 0.00 in   Overcast
4:00 PM 66.2 °F 64.4 °F 94% 29.96 in 7.0 mi SSW 6.9 mph - N/A   Mostly Cloudy
4:52 PM 66.9 °F 64.9 °F 93% 29.95 in 6.0 mi SSW 9.2 mph - N/A   Mostly Cloudy
5:03 PM 66.2 °F 64.4 °F 94% 29.96 in 6.0 mi South 8.1 mph - N/A   Overcast
5:52 PM 70.0 °F 64.9 °F 84% 29.94 in 8.0 mi SW 5.8 mph - N/A   Mostly Cloudy
6:52 PM 69.1 °F 64.0 °F 84% 29.94 in 9.0 mi SSW 8.1 mph - N/A   Mostly Cloudy
7:52 PM 69.1 °F 64.0 °F 84% 29.94 in 8.0 mi SW 5.8 mph - N/A   Mostly Cloudy
8:52 PM 66.0 °F 64.0 °F 93% 29.94 in 7.0 mi Calm Calm - N/A   Mostly Cloudy
9:52 PM 64.9 °F 63.0 °F 93% 29.96 in 7.0 mi Calm Calm - 0.00 in   Mostly Cloudy
10:52 PM 64.9 °F 64.0 °F 97% 29.98 in 6.0 mi Calm Calm - N/A   Mostly Cloudy
11:27 PM 62.6 °F 62.6 °F 100% 30.00 in 1.8 mi Calm Calm - N/A   Mostly Cloudy
11:36 PM 62.6 °F 62.6 °F 100% 30.00 in 3.0 mi South 3.5 mph - N/A   Mostly Cloudy
11:52 PM 61.0 °F 61.0 °F 100% 29.98 in 3.0 mi Calm Calm - N/A   Scattered Clouds